• In Hungary
  • List of Countries
  • For 7 days
  • Water Temperature
  • Satellite Maps
  • Weather Map
  • News
  • Weather Widgets
  • user-avatar
    Login

    Hourly Weather Podgorzyn

    Today, 28 May, Monday

    Time Temperature Precipitation Wind Pressure Humidity
    00:00 +17°C° 0 mm 2 mps 731 mmHg 82%
    01:00 +16°C° 0 mm 2 mps 731 mmHg 83%
    02:00 +16°C° 0 mm 2 mps 731 mmHg 84%
    03:00 +16°C° 0 mm 2 mps 731 mmHg 85%
    04:00 +16°C° 0 mm 2 mps 731 mmHg 87%
    05:00 +18°C° 0 mm 2 mps 731 mmHg 82%
    06:00 +19°C° 0 mm 2 mps 731 mmHg 78%
    07:00 +21°C° 0 mm 2 mps 732 mmHg 73%
    08:00 +23°C° 0.1 mm 2 mps 732 mmHg 69%
    09:00 +25°C° 0.1 mm 3 mps 732 mmHg 64%
    10:00 +26°C° 0.1 mm 3 mps 732 mmHg 59%
    11:00 +26°C° 0.1 mm 4 mps 732 mmHg 58%
    12:00 +27°C° 0.1 mm 4 mps 732 mmHg 57%
    13:00 +27°C° 0.1 mm 4 mps 731 mmHg 55%
    14:00 +27°C° 0 mm 4 mps 731 mmHg 57%
    15:00 +27°C° 0 mm 4 mps 731 mmHg 58%
    16:00 +27°C° 0 mm 4 mps 731 mmHg 59%
    17:00 +26°C° 0 mm 4 mps 730 mmHg 65%
    18:00 +24°C° 0 mm 3 mps 730 mmHg 70%
    19:00 +22°C° 0 mm 3 mps 730 mmHg 75%
    20:00 +21°C° 0 mm 3 mps 730 mmHg 77%
    21:00 +20°C° 0 mm 3 mps 730 mmHg 78%
    22:00 +19°C° 0 mm 3 mps 730 mmHg 80%
    23:00 +18°C° 0 mm 3 mps 730 mmHg 82%

    Tomorrow, 29 May, Tuesday

    Time Temperature Precipitation Wind Pressure Humidity
    00:00 +17°C° 0 mm 2 mps 730 mmHg 83%
    01:00 +16°C° 0 mm 2 mps 730 mmHg 85%
    02:00 +16°C° 0 mm 2 mps 730 mmHg 86%
    03:00 +16°C° 0 mm 2 mps 729 mmHg 87%
    04:00 +16°C° 0 mm 2 mps 729 mmHg 88%
    05:00 +17°C° 0 mm 2 mps 729 mmHg 83%
    06:00 +19°C° 0 mm 3 mps 729 mmHg 79%
    07:00 +21°C° 0 mm 3 mps 729 mmHg 75%
    08:00 +22°C° 0 mm 3 mps 729 mmHg 70%
    09:00 +25°C° 0 mm 4 mps 729 mmHg 65%
    10:00 +26°C° 0 mm 4 mps 729 mmHg 61%
    11:00 +27°C° 0 mm 4 mps 729 mmHg 58%
    12:00 +27°C° 0 mm 4 mps 729 mmHg 56%
    13:00 +28°C° 0 mm 5 mps 728 mmHg 54%
    14:00 +28°C° 0 mm 5 mps 728 mmHg 54%
    15:00 +27°C° 0 mm 5 mps 728 mmHg 55%
    16:00 +27°C° 0 mm 5 mps 727 mmHg 56%
    17:00 +26°C° 0 mm 4 mps 727 mmHg 63%
    18:00 +25°C° 0 mm 3 mps 727 mmHg 69%
    19:00 +23°C° 0 mm 2 mps 727 mmHg 75%
    20:00 +21°C° 0 mm 3 mps 727 mmHg 79%
    21:00 +20°C° 0 mm 3 mps 727 mmHg 82%
    22:00 +19°C° 0 mm 3 mps 727 mmHg 85%
    23:00 +18°C° 0 mm 3 mps 727 mmHg 85%

    Day after tomorrow, 30 May, Wednesday

    Time Temperature Precipitation Wind Pressure Humidity
    00:00 +18°C° 0 mm 3 mps 727 mmHg 86%
    01:00 +17°C° 0 mm 3 mps 726 mmHg 86%
    02:00 +17°C° 0 mm 3 mps 726 mmHg 85%
    03:00 +17°C° 0 mm 3 mps 726 mmHg 85%
    04:00 +17°C° 0 mm 3 mps 726 mmHg 85%
    05:00 +18°C° 0 mm 3 mps 726 mmHg 81%
    06:00 +19°C° 0 mm 4 mps 726 mmHg 76%
    07:00 +20°C° 0 mm 4 mps 726 mmHg 72%
    08:00 +21°C° 0 mm 4 mps 726 mmHg 68%
    09:00 +22°C° 0 mm 4 mps 727 mmHg 64%
    10:00 +25°C° 0 mm 5 mps 727 mmHg 60%
    11:00 +25°C° 0 mm 5 mps 727 mmHg 57%
    12:00 +26°C° 0 mm 5 mps 726 mmHg 54%
    13:00 +27°C° 0 mm 5 mps 726 mmHg 52%
    14:00 +27°C° 0.2 mm 4 mps 726 mmHg 54%
    15:00 +26°C° 0.2 mm 4 mps 726 mmHg 57%
    16:00 +26°C° 0.2 mm 4 mps 725 mmHg 60%
    17:00 +25°C° 0.4 mm 3 mps 725 mmHg 66%
    18:00 +23°C° 0.4 mm 2 mps 725 mmHg 72%
    19:00 +21°C° 0.4 mm 2 mps 725 mmHg 78%
    20:00 +20°C° 0.1 mm 2 mps 725 mmHg 80%
    21:00 +19°C° 0.1 mm 2 mps 725 mmHg 81%
    22:00 +19°C° 0.1 mm 1 mps 725 mmHg 83%
    23:00 +19°C° 0.4 mm 1 mps 725 mmHg 85%

    31 May, Thursday

    Time Temperature Precipitation Wind Pressure Humidity
    00:00 +19°C° 0.4 mm 1 mps 725 mmHg 87%
    01:00 +18°C° 0.4 mm 1 mps 725 mmHg 89%
    02:00 +17°C° 0.9 mm 2 mps 725 mmHg 90%
    03:00 +17°C° 0.9 mm 2 mps 725 mmHg 92%
    04:00 +17°C° 0.9 mm 2 mps 725 mmHg 93%
    05:00 +17°C° 1.2 mm 2 mps 725 mmHg 92%
    06:00 +17°C° 1.2 mm 2 mps 725 mmHg 92%
    07:00 +18°C° 1.2 mm 2 mps 725 mmHg 91%
    08:00 +18°C° 0.8 mm 2 mps 725 mmHg 89%
    09:00 +19°C° 0.8 mm 3 mps 725 mmHg 87%
    10:00 +19°C° 0.8 mm 3 mps 725 mmHg 85%
    11:00 +20°C° 0.4 mm 4 mps 725 mmHg 83%
    12:00 +20°C° 0.4 mm 4 mps 725 mmHg 80%
    13:00 +21°C° 0.4 mm 4 mps 725 mmHg 78%
    14:00 +21°C° 0.2 mm 4 mps 725 mmHg 76%
    15:00 +22°C° 0.2 mm 4 mps 725 mmHg 73%
    16:00 +22°C° 0.2 mm 4 mps 725 mmHg 71%
    17:00 +21°C° 0.1 mm 4 mps 725 mmHg 74%
    18:00 +20°C° 0.1 mm 3 mps 725 mmHg 76%
    19:00 +20°C° 0.1 mm 3 mps 725 mmHg 79%
    20:00 +19°C° 0 mm 3 mps 726 mmHg 82%
    21:00 +18°C° 0 mm 3 mps 726 mmHg 85%
    22:00 +17°C° 0 mm 3 mps 726 mmHg 89%
    23:00 +16°C° 0 mm 3 mps 727 mmHg 90%

    1 June, Friday

    Time Temperature Precipitation Wind Pressure Humidity
    00:00 +16°C° 0 mm 3 mps 727 mmHg 90%
    01:00 +15°C° 0 mm 4 mps 727 mmHg 91%
    02:00 +14°C° 0 mm 4 mps 727 mmHg 90%
    03:00 +14°C° 0 mm 4 mps 727 mmHg 89%
    04:00 +14°C° 0 mm 4 mps 728 mmHg 88%
    05:00 +14°C° 0 mm 4 mps 728 mmHg 84%
    06:00 +15°C° 0 mm 4 mps 728 mmHg 80%
    07:00 +15°C° 0 mm 5 mps 729 mmHg 75%
    08:00 +16°C° 0 mm 5 mps 729 mmHg 70%
    09:00 +19°C° 0 mm 5 mps 729 mmHg 64%
    10:00 +20°C° 0 mm 6 mps 730 mmHg 58%
    11:00 +20°C° 0 mm 6 mps 730 mmHg 56%
    12:00 +21°C° 0 mm 6 mps 730 mmHg 54%
    13:00 +22°C° 0 mm 6 mps 730 mmHg 51%
    14:00 +21°C° 0 mm 6 mps 729 mmHg 52%
    15:00 +21°C° 0 mm 6 mps 729 mmHg 53%
    16:00 +21°C° 0 mm 6 mps 729 mmHg 54%
    17:00 +20°C° 0 mm 5 mps 729 mmHg 59%
    18:00 +19°C° 0 mm 5 mps 730 mmHg 65%
    19:00 +18°C° 0 mm 4 mps 730 mmHg 70%
    20:00 +15°C° 0 mm 4 mps 730 mmHg 73%
    21:00 +14°C° 0 mm 3 mps 730 mmHg 76%
    22:00 +12°C° 0 mm 3 mps 731 mmHg 79%
    23:00 +11°C° 0 mm 3 mps 731 mmHg 80%

    2 June, Saturday

    Time Temperature Precipitation Wind Pressure Humidity
    00:00 +11°C° 0 mm 3 mps 731 mmHg 82%
    01:00 +10°C° 0 mm 2 mps 731 mmHg 84%
    02:00 +9°C° 0 mm 2 mps 731 mmHg 85%
    03:00 +9°C° 0 mm 2 mps 731 mmHg 86%
    04:00 +9°C° 0 mm 2 mps 731 mmHg 87%
    05:00 +12°C° 0 mm 2 mps 732 mmHg 80%
    06:00 +13°C° 0 mm 3 mps 732 mmHg 74%
    07:00 +14°C° 0 mm 3 mps 732 mmHg 67%
    08:00 +17°C° 0 mm 3 mps 732 mmHg 62%
    09:00 +18°C° 0 mm 4 mps 733 mmHg 56%
    10:00 +20°C° 0 mm 4 mps 733 mmHg 51%
    11:00 +20°C° 0 mm 4 mps 733 mmHg 49%
    12:00 +21°C° 0 mm 4 mps 733 mmHg 47%
    13:00 +21°C° 0 mm 4 mps 733 mmHg 45%
    14:00 +21°C° 0 mm 4 mps 732 mmHg 46%
    15:00 +21°C° 0 mm 4 mps 732 mmHg 47%
    16:00 +21°C° 0 mm 4 mps 732 mmHg 48%
    17:00 +20°C° 0 mm 4 mps 732 mmHg 54%
    18:00 +18°C° 0 mm 3 mps 732 mmHg 60%
    19:00 +17°C° 0 mm 3 mps 732 mmHg 66%
    20:00 +14°C° 0 mm 3 mps 732 mmHg 70%
    21:00 +14°C° 0 mm 2 mps 732 mmHg 74%
    22:00 +12°C° 0 mm 2 mps 732 mmHg 77%
    23:00 +12°C° 0 mm 2 mps 732 mmHg 78%
    Show more